Lid_Strength_Index
10 10 10 10 9 9 9 9 10 9 9 7 8 8 7 6 6 6 5 5 4 4 3 2 2 2 2 1 1 1 1 1 1 1 0 1 0 1 0 0 0 0 0 0
10 10 9 9 8 8 8 8 8 9 9 8 7 6 7 6 6 6 5 4 4 4 4 3 2 2 2 1 1 1 1 1 1 1 1 1 1 1 1 1 0 0 0 1
11 10 9 11 9 8 8 9 9 10 9 7 8 7 7 6 6 5 5 4 4 3 3 3 3 2 1 1 1 1 1 1 1 1 1 1 1 1 1 1 1 1 1 1
11 10 13 9 7 8 9 9 8 8 8 7 7 7 6 5 5 5 4 4 3 3 2 2 2 2 1 1 1 1 1 1 1 1 1 1 1 1 1 1 1 1 1 1
11 11 10 10 8 9 10 10 7 8 7 7 6 6 6 4 4 4 3 3 2 2 2 1 1 1 1 1 1 1 1 1 1 1 1 1 1 1 1 1 1 1 1 1
11 13 14 10 7 6 6 11 7 6 7 7 6 9 7 4 3 3 3 2 2 2 2 2 1 1 1 1 1 1 1 1 0 1 1 1 1 1 1 1 1 1 1 1
11 12 11 8 6 5 12 11 6 6 6 6 7 6 4 3 3 2 2 2 2 2 2 2 1 1 2 2 2 1 1 0 0 0 1 1 1 0 1 1 1 2 2 1
11 13 14 6 7 10 7 6 5 5 5 5 5 4 4 3 3 3 3 2 2 2 2 1 1 1 2 2 1 0 0 1 1 0 1 1 1 1 1 1 2 2 2 2
10 10 7 5 6 5 5 5 5 5 4 4 5 4 4 4 3 3 3 3 2 2 2 2 1 1 2 2 1 1 1 1 1 0 1 1 1 1 2 1 2 2 3 3
9 8 7 6 5 4 4 4 4 4 4 4 5 4 4 4 4 3 3 3 2 2 3 3 2 1 1 1 1 1 1 1 1 1 1 1 1 1 2 2 2 2 3 3
9 7 6 5 5 4 4 3 4 3 3 4 4 4 4 4 4 3 3 3 2 3 3 3 2 2 1 1 1 1 1 1 1 1 1 1 1 1 2 1 2 2 2 2
9 6 6 6 4 3 4 4 4 4 4 3 3 4 3 4 3 3 3 3 3 2 2 2 2 2 1 1 1 1 2 2 2 2 1 1 2 2 6 6 8 10 11 7
6 4 4 4 4 3 4 4 3 3 3 4 3 3 3 4 3 3 3 3 3 3 3 2 2 2 1 1 1 1 2 2 2 2 2 2 2 2 3 3 9 11 12 12
4 4 5 4 5 3 3 3 3 3 3 3 3 3 3 3 3 3 3 3 2 2 2 2 2 2 1 1 1 1 1 3 2 2 2 2 2 2 2 3 3 3 7 8
4 4 4 4 3 4 3 3 4 4 4 4 3 3 3 4 4 3 3 2 2 3 2 2 2 2 1 1 1 2 2 2 2 2 2 2 2 2 2 2 3 3 2 8
4 4 4 5 4 4 4 4 5 5 4 4 4 4 4 3 3 3 3 2 4 4 3 2 2 2 1 1 1 1 2 2 2 2 2 2 2 2 2 3 3 3 3 2
6 6 5 5 5 5 5 4 4 4 4 4 4 4 4 4 4 4 3 3 3 3 2 2 2 1 1 1 1 2 2 2 2 2 2 2 2 2 2 3 3 2 2 2
3 4 4 4 5 5 5 4 4 4 4 4 3 4 4 4 5 4 3 3 2 3 2 1 1 1 1 1 1 1 1 2 2 2 2 2 2 2 2 3 3 2 2 2
3 4 3 3 3 4 4 4 4 3 4 3 4 4 4 4 4 3 3 3 3 3 2 1 1 1 1 1 1 1 2 2 2 2 2 3 2 2 3 3 2 2 2 2
3 3 3 3 3 3 4 4 4 4 4 4 4 4 4 4 3 3 3 3 3 2 1 1 1 1 1 1 1 1 2 2 2 3 3 3 2 3 2 4 2 2 2 2
4 3 3 3 3 3 4 4 4 4 4 4 4 4 4 3 2 2 3 4 2 1 1 2 1 1 1 1 1 1 2 2 2 2 3 3 3 3 3 2 2 2 2 2
3 3 3 3 3 4 4 4 4 4 4 3 3 3 3 4 3 3 2 3 2 4 2 2 2 3 3 2 2 2 2 2 2 2 3 3 3 3 3 2 2 2 2 2
3 3 3 3 4 3 3 4 5 4 4 4 4 4 5 4 4 4 5 5 4 4 4 4 5 5 5 2 2 2 3 2 2 2 2 2 2 2 2 2 2 2 2 2
3 3 3 2 3 3 5 5 4 5 4 4 4 5 5 5 5 4 4 5 6 6 6 6 6 6 6 4 4 4 2 2 2 2 2 6 2 2 2 2 2 2 2 4
3 3 3 3 4 4 5 5 4 5 5 5 6 5 6 5 6 6 6 6 7 6 6 7 7 7 7 6 5 4 4 4 3 3 3 3 3 3 3 3 3 3 3 3
3 3 3 2 3 3 3 4 4 5 6 6 7 7 7 6 6 7 7 7 7 7 7 8 8 8 8 8 7 7 7 7 6 7 7 7 7 7 7 7 7 6 5 5
2 5 3 3 3 3 3 3 3 3 5 6 5 5 6 5 6 7 7 7 8 8 9 9 8 8 9 9 9 9 9 9 11 8 8 9 9 9 9 9 10 9 9 9